SUD014 ZGGG-RPLL

Flight info

Callsign SUD014
Flight time N/A
Altitude 24600
Route VIBOS9 VIBOS R473 SIERA/N0445F370 DCT MULET DCT SKATE V642 NOMAN A461 AVMUP W16 TADEL TADEL5R
Aircraft A20N/M-SDE2E3FGHIRWXY/LB1

Departure

Time 2026-04-28 15:04
Airport Guangzhou Baiyun International Airport (ZGGG)

Arrival

Time N/A
Airport Ninoy Aquino International Airport (RPLL)
Time Latitude Longitude Altitude Speed Heading
2026-04-28 14:40 23.40071 113.30646 54 ft 0 kts
2026-04-28 14:50 23.40068 113.30646 54 ft 3 kts
2026-04-28 14:50 23.40041 113.30643 54 ft 4 kts
2026-04-28 14:50 23.40015 113.30637 53 ft 4 kts 16°
2026-04-28 14:51 23.39990 113.30627 55 ft 4 kts 39°
2026-04-28 14:51 23.39979 113.30609 53 ft 2 kts 103°
2026-04-28 14:51 23.39980 113.30603 53 ft 0 kts 104°
2026-04-28 14:54 23.39973 113.30632 58 ft 12 kts 104°
2026-04-28 14:55 23.39941 113.30746 54 ft 16 kts 125°
2026-04-28 14:55 23.39863 113.30751 57 ft 11 kts 195°
2026-04-28 14:55 23.39787 113.30730 57 ft 13 kts 194°
2026-04-28 14:55 23.39691 113.30705 57 ft 15 kts 194°
2026-04-28 14:56 23.39589 113.30678 57 ft 15 kts 194°
2026-04-28 14:56 23.39490 113.30650 57 ft 14 kts 194°
2026-04-28 14:56 23.39395 113.30624 55 ft 14 kts 193°
2026-04-28 14:56 23.39306 113.30601 57 ft 13 kts 193°
2026-04-28 14:57 23.39221 113.30578 55 ft 12 kts 194°
2026-04-28 14:57 23.39164 113.30562 55 ft 13 kts 194°
2026-04-28 14:57 23.39038 113.30528 55 ft 15 kts 194°
2026-04-28 14:57 23.38932 113.30500 60 ft 16 kts 194°
2026-04-28 14:58 23.38817 113.30469 55 ft 17 kts 194°
2026-04-28 14:58 23.38701 113.30438 59 ft 17 kts 193°
2026-04-28 14:58 23.38587 113.30408 58 ft 16 kts 194°
2026-04-28 14:58 23.38478 113.30377 56 ft 16 kts 194°
2026-04-28 14:59 23.38409 113.30358 57 ft 16 kts 194°
2026-04-28 14:59 23.38305 113.30329 57 ft 15 kts 194°
2026-04-28 14:59 23.38203 113.30301 56 ft 15 kts 193°
2026-04-28 14:59 23.38075 113.30268 56 ft 14 kts 193°
2026-04-28 15:00 23.37983 113.30244 54 ft 13 kts 193°
2026-04-28 15:00 23.37895 113.30221 56 ft 13 kts 194°
2026-04-28 15:00 23.37810 113.30197 57 ft 12 kts 194°
2026-04-28 15:00 23.37756 113.30193 59 ft 11 kts 168°
2026-04-28 15:01 23.37683 113.30232 55 ft 15 kts 149°
2026-04-28 15:01 23.37630 113.30340 57 ft 14 kts 85°
2026-04-28 15:01 23.37682 113.30363 57 ft 15 kts
2026-04-28 15:01 23.37807 113.30412 55 ft 16 kts 63°
2026-04-28 15:02 23.37806 113.30457 59 ft 0 kts 105°
2026-04-28 15:02 23.37803 113.30469 56 ft 4 kts 105°
2026-04-28 15:02 23.37792 113.30516 60 ft 9 kts 104°
2026-04-28 15:03 23.37809 113.30591 55 ft 12 kts 21°
2026-04-28 15:03 23.37864 113.30612 56 ft 14 kts 14°
2026-04-28 15:03 23.38083 113.30672 56 ft 62 kts 14°
2026-04-28 15:03 23.38698 113.30839 56 ft 119 kts 14°
2026-04-28 15:04 23.39679 113.31105 54 ft 168 kts 14°
2026-04-28 15:04 23.40858 113.31412 418 ft 172 kts 13°
2026-04-28 15:04 23.42023 113.31687 995 ft 175 kts 14°
2026-04-28 15:04 23.43311 113.32075 1230 ft 208 kts 19°
2026-04-28 15:05 23.44776 113.32551 1466 ft 237 kts 18°
2026-04-28 15:05 23.46432 113.33069 1915 ft 254 kts 18°
2026-04-28 15:05 23.48155 113.33590 2600 ft 260 kts 16°
2026-04-28 15:05 23.49919 113.34118 3314 ft 264 kts 15°
2026-04-28 15:06 23.51692 113.34646 4061 ft 266 kts 14°
2026-04-28 15:06 23.53485 113.35178 4791 ft 268 kts 14°
2026-04-28 15:06 23.55294 113.35700 5477 ft 270 kts 11°
2026-04-28 15:06 23.57139 113.36111 6104 ft 271 kts
2026-04-28 15:07 23.58997 113.36463 6759 ft 271 kts
2026-04-28 15:07 23.60869 113.36411 7391 ft 268 kts 341°
2026-04-28 15:07 23.62461 113.35516 7986 ft 261 kts 313°
2026-04-28 15:07 23.63486 113.33882 8369 ft 266 kts 285°
2026-04-28 15:08 23.63896 113.31893 8911 ft 271 kts 276°
2026-04-28 15:08 23.64162 113.29850 9614 ft 273 kts 275°
2026-04-28 15:08 23.64417 113.27789 10253 ft 278 kts 275°
2026-04-28 15:08 23.64689 113.25643 10565 ft 295 kts 275°
2026-04-28 15:09 23.64983 113.23396 10802 ft 312 kts 275°
2026-04-28 15:09 23.65308 113.20977 11175 ft 322 kts 276°
2026-04-28 15:09 23.65512 113.18566 11695 ft 324 kts 267°
2026-04-28 15:09 23.65154 113.16156 12247 ft 324 kts 250°
2026-04-28 15:10 23.64083 113.13991 12831 ft 327 kts 232°
2026-04-28 15:10 23.62536 113.12179 13450 ft 329 kts 225°
2026-04-28 15:10 23.60860 113.10453 14014 ft 332 kts 223°
2026-04-28 15:10 23.58997 113.08938 14520 ft 338 kts 211°
2026-04-28 15:11 23.56779 113.08041 15044 ft 347 kts 194°
2026-04-28 15:11 23.54352 113.07832 15578 ft 353 kts 185°
2026-04-28 15:11 23.51870 113.07842 16116 ft 357 kts 183°
2026-04-28 15:11 23.49411 113.07881 16622 ft 360 kts 183°
2026-04-28 15:12 23.46903 113.07916 17140 ft 363 kts 183°
2026-04-28 15:12 23.44363 113.07942 17636 ft 366 kts 183°
2026-04-28 15:12 23.41813 113.07963 18108 ft 369 kts 184°
2026-04-28 15:12 23.39236 113.07982 18526 ft 372 kts 184°
2026-04-28 15:13 23.36633 113.07998 18928 ft 374 kts 184°
2026-04-28 15:13 23.34026 113.08014 19346 ft 377 kts 184°
2026-04-28 15:13 23.31436 113.08030 19742 ft 379 kts 184°
2026-04-28 15:13 23.28787 113.08061 20145 ft 382 kts 182°
2026-04-28 15:14 23.26120 113.08392 20548 ft 390 kts 172°
2026-04-28 15:14 23.23506 113.09267 20942 ft 397 kts 163°
2026-04-28 15:14 23.20940 113.10400 21345 ft 401 kts 161°
2026-04-28 15:14 23.18368 113.11585 21741 ft 404 kts 161°
2026-04-28 15:15 23.15764 113.12785 22147 ft 406 kts 161°
2026-04-28 15:15 23.13150 113.13985 22563 ft 409 kts 161°
2026-04-28 15:15 23.10555 113.15172 22971 ft 412 kts 161°
2026-04-28 15:15 23.07906 113.16380 23387 ft 415 kts 161°
2026-04-28 15:16 23.05230 113.17599 23746 ft 418 kts 161°
2026-04-28 15:16 23.02543 113.18806 24088 ft 419 kts 163°
2026-04-28 15:16 22.99787 113.19847 24446 ft 419 kts 166°
2026-04-28 15:16 22.97010 113.20815 24795 ft 421 kts 167°
2026-04-28 15:17 22.94207 113.21780 25133 ft 423 kts 167°
2026-04-28 15:17 22.91387 113.22752 25464 ft 425 kts 167°
2026-04-28 15:17 22.88567 113.23727 25818 ft 427 kts 167°
2026-04-28 15:17 22.85729 113.24709 26153 ft 428 kts 167°
2026-04-28 15:18 22.82923 113.25682 26468 ft 430 kts 167°
2026-04-28 15:18 22.80062 113.26673 26782 ft 432 kts 167°
2026-04-28 15:18 22.77198 113.27666 27092 ft 434 kts 167°
2026-04-28 15:18 22.74302 113.28669 27399 ft 436 kts 167°
2026-04-28 15:19 22.71414 113.29669 27702 ft 438 kts 167°
2026-04-28 15:19 22.68492 113.30680 27997 ft 440 kts 167°
2026-04-28 15:19 22.65582 113.31687 28284 ft 442 kts 167°
2026-04-28 15:19 22.62637 113.32706 28572 ft 444 kts 167°
2026-04-28 15:20 22.59686 113.33726 28839 ft 446 kts 167°
2026-04-28 15:20 22.56767 113.34734 29076 ft 448 kts 167°
2026-04-28 15:20 22.53791 113.35762 29341 ft 451 kts 167°
2026-04-28 15:20 22.50801 113.36794 29618 ft 452 kts 167°
2026-04-28 15:21 22.47800 113.37830 29885 ft 454 kts 167°
2026-04-28 15:21 22.44776 113.38873 30113 ft 456 kts 167°
2026-04-28 15:21 22.41763 113.39913 30409 ft 455 kts 167°
2026-04-28 15:21 22.38745 113.40955 30746 ft 454 kts 167°
2026-04-28 15:22 22.35752 113.41988 31082 ft 452 kts 167°
2026-04-28 15:22 22.32757 113.43021 31410 ft 451 kts 167°
2026-04-28 15:22 22.29771 113.44050 31711 ft 450 kts 167°
2026-04-28 15:22 22.26825 113.45064 31961 ft 450 kts 167°
2026-04-28 15:23 22.23829 113.46093 32214 ft 451 kts 167°
2026-04-28 15:23 22.20849 113.47134 32517 ft 450 kts 166°
2026-04-28 15:23 22.17879 113.48206 32837 ft 449 kts 166°
2026-04-28 15:23 22.14925 113.49290 33136 ft 448 kts 166°
2026-04-28 15:24 22.11978 113.50377 33438 ft 447 kts 165°
2026-04-28 15:24 22.09039 113.51463 33729 ft 446 kts 166°
2026-04-28 15:24 22.06099 113.52546 33998 ft 446 kts 166°
2026-04-28 15:24 22.03171 113.53622 34206 ft 445 kts 166°
2026-04-28 15:25 22.00272 113.54703 34408 ft 446 kts 163°
2026-04-28 15:25 21.97432 113.56095 34603 ft 450 kts 158°
2026-04-28 15:25 21.94663 113.57665 34763 ft 452 kts 156°
2026-04-28 15:25 21.91906 113.59300 34904 ft 454 kts 155°
2026-04-28 15:26 21.89159 113.60972 35102 ft 454 kts 155°
2026-04-28 15:26 21.86419 113.62658 35320 ft 453 kts 155°
2026-04-28 15:26 21.83684 113.64344 35503 ft 452 kts 155°
2026-04-28 15:26 21.80946 113.66029 35709 ft 452 kts 155°
2026-04-28 15:27 21.78222 113.67698 35877 ft 452 kts 155°
2026-04-28 15:27 21.75490 113.69368 36048 ft 452 kts 155°
2026-04-28 15:27 21.72787 113.71015 36204 ft 451 kts 156°
2026-04-28 15:27 21.70058 113.72676 36366 ft 451 kts 156°
2026-04-28 15:28 21.67328 113.74343 36526 ft 452 kts 154°
2026-04-28 15:28 21.64718 113.76264 36678 ft 458 kts 146°
2026-04-28 15:28 21.62369 113.78629 36723 ft 467 kts 136°
2026-04-28 15:28 21.60424 113.81442 36753 ft 476 kts 124°
2026-04-28 15:29 21.58991 113.84677 36851 ft 482 kts 112°
2026-04-28 15:29 21.58174 113.88185 36997 ft 487 kts 99°
2026-04-28 15:29 21.57851 113.91768 37135 ft 488 kts 96°
2026-04-28 15:29 21.57674 113.95409 37277 ft 489 kts 94°
2026-04-28 15:30 21.57568 113.99059 37410 ft 489 kts 93°
2026-04-28 15:30 21.57484 114.02711 37541 ft 489 kts 93°
2026-04-28 15:30 21.57396 114.06368 37614 ft 490 kts 93°
2026-04-28 15:31 21.57179 114.13692 37629 ft 491 kts 94°
2026-04-28 15:31 21.56920 114.21030 37625 ft 491 kts 94°
2026-04-28 15:32 21.56647 114.28298 37623 ft 490 kts 94°
2026-04-28 15:32 21.56368 114.35624 37625 ft 490 kts 94°
2026-04-28 15:33 21.56088 114.42938 37624 ft 491 kts 94°
2026-04-28 15:33 21.55805 114.50272 37622 ft 493 kts 94°
2026-04-28 15:34 21.55518 114.57641 37635 ft 493 kts 94°
2026-04-28 15:34 21.55230 114.64955 37620 ft 493 kts 94°
2026-04-28 15:35 21.54937 114.72297 37631 ft 493 kts 94°
2026-04-28 15:35 21.54492 114.83324 37629 ft 492 kts 94°
2026-04-28 15:36 21.54191 114.90672 37621 ft 492 kts 94°
2026-04-28 15:36 21.53889 114.97962 37621 ft 492 kts 94°
2026-04-28 15:37 21.53582 115.05313 37629 ft 493 kts 94°
2026-04-28 15:37 21.52780 115.12580 37627 ft 488 kts 109°
2026-04-28 15:38 21.51597 115.15970 37630 ft 481 kts 121°
2026-04-28 15:38 21.49892 115.19027 37645 ft 476 kts 129°
2026-04-28 15:38 21.46031 115.24733 37626 ft 476 kts 133°
2026-04-28 15:39 21.41962 115.30340 37638 ft 475 kts 133°
2026-04-28 15:39 21.37903 115.35936 37636 ft 476 kts 132°
2026-04-28 15:40 21.33859 115.41571 37634 ft 476 kts 132°
2026-04-28 15:40 21.29834 115.47204 37629 ft 476 kts 132°
2026-04-28 15:41 21.25827 115.52812 37633 ft 476 kts 132°
2026-04-28 15:41 21.21794 115.58448 37633 ft 476 kts 132°
2026-04-28 15:42 21.17761 115.64077 37633 ft 476 kts 132°
2026-04-28 15:42 21.13729 115.69697 37629 ft 476 kts 131°
2026-04-28 15:43 21.09712 115.75291 37630 ft 476 kts 132°
2026-04-28 15:43 21.05676 115.80907 37633 ft 476 kts 132°
2026-04-28 15:44 21.01636 115.86523 37633 ft 476 kts 132°
2026-04-28 15:44 20.97591 115.92139 37629 ft 475 kts 131°
2026-04-28 15:45 20.93558 115.97734 37630 ft 474 kts 131°
2026-04-28 15:45 20.89560 116.03275 37633 ft 474 kts 131°
2026-04-28 15:46 20.85421 116.08741 37633 ft 469 kts 140°
2026-04-28 15:46 20.80346 116.12997 37631 ft 461 kts 151°
2026-04-28 15:47 20.74979 116.16722 37633 ft 461 kts 153°
2026-04-28 15:47 20.69578 116.20331 37630 ft 460 kts 153°
2026-04-28 15:48 20.64153 116.23965 37611 ft 461 kts 153°
2026-04-28 15:48 20.58737 116.27617 37629 ft 460 kts 152°
2026-04-28 15:49 20.53326 116.31275 37630 ft 460 kts 152°
2026-04-28 15:49 20.47954 116.34905 37629 ft 460 kts 152°
2026-04-28 15:50 20.42554 116.38550 37629 ft 460 kts 152°
2026-04-28 15:50 20.37141 116.42200 37630 ft 460 kts 152°
2026-04-28 15:51 20.31730 116.45845 37630 ft 460 kts 152°
2026-04-28 15:51 20.26315 116.49490 37631 ft 462 kts 152°
2026-04-28 15:52 20.20907 116.53126 37629 ft 462 kts 152°
2026-04-28 15:52 20.15469 116.56780 37618 ft 462 kts 152°
2026-04-28 15:53 20.10026 116.60435 37630 ft 463 kts 152°
2026-04-28 15:53 20.04581 116.64089 37630 ft 463 kts 152°
2026-04-28 15:54 19.99369 116.68128 37630 ft 469 kts 139°
2026-04-28 15:54 19.94833 116.73061 37630 ft 471 kts 136°
2026-04-28 15:55 19.90414 116.78198 37631 ft 471 kts 136°
2026-04-28 15:55 19.86012 116.83361 37630 ft 471 kts 136°
2026-04-28 15:56 19.81593 116.88508 37629 ft 471 kts 136°
2026-04-28 15:56 19.77190 116.93609 37630 ft 472 kts 136°
2026-04-28 15:57 19.72752 116.98738 37630 ft 472 kts 136°
2026-04-28 15:57 19.68314 117.03862 37633 ft 472 kts 136°
2026-04-28 15:58 19.63875 117.08986 37633 ft 472 kts 136°
2026-04-28 15:58 19.59463 117.14074 37623 ft 472 kts 136°
2026-04-28 15:59 19.55018 117.19195 37631 ft 472 kts 136°
2026-04-28 15:59 19.50575 117.24310 37636 ft 471 kts 136°
2026-04-28 16:00 19.46134 117.29418 37640 ft 471 kts 136°
2026-04-28 16:00 19.41717 117.34494 37637 ft 471 kts 136°
2026-04-28 16:01 19.37276 117.39593 37636 ft 471 kts 136°
2026-04-28 16:01 19.32828 117.44696 37636 ft 471 kts 136°
2026-04-28 16:02 19.28376 117.49799 37642 ft 471 kts 136°
2026-04-28 16:02 19.23931 117.54889 37638 ft 471 kts 136°
2026-04-28 16:03 19.19482 117.59980 37645 ft 471 kts 136°
2026-04-28 16:03 19.15069 117.65026 37635 ft 470 kts 136°
2026-04-28 16:04 19.10625 117.70102 37635 ft 470 kts 136°
2026-04-28 16:04 19.06177 117.75178 37638 ft 470 kts 136°
2026-04-28 16:05 19.01728 117.80252 37635 ft 470 kts 136°
2026-04-28 16:05 18.97315 117.85280 37644 ft 470 kts 136°
2026-04-28 16:06 18.92865 117.90345 37641 ft 470 kts 136°
2026-04-28 16:06 18.88410 117.95412 37635 ft 470 kts 136°
2026-04-28 16:07 18.83961 118.00469 37639 ft 470 kts 136°
2026-04-28 16:08 18.77324 118.08004 37642 ft 469 kts 136°
2026-04-28 16:08 18.72874 118.13050 37643 ft 470 kts 136°
2026-04-28 16:09 18.66181 118.20632 37636 ft 470 kts 136°
2026-04-28 16:10 18.59519 118.28171 37637 ft 470 kts 136°
2026-04-28 16:10 18.52828 118.35733 37645 ft 470 kts 136°
2026-04-28 16:11 18.43877 118.45834 37641 ft 471 kts 136°
2026-04-28 16:12 18.37206 118.53352 37641 ft 471 kts 136°
2026-04-28 16:13 18.30496 118.60904 37642 ft 471 kts 136°
2026-04-28 16:14 18.21546 118.70963 37646 ft 472 kts 136°
2026-04-28 16:15 18.12594 118.81009 37642 ft 472 kts 136°
2026-04-28 16:15 18.08097 118.86047 37643 ft 472 kts 136°
2026-04-28 16:16 18.01395 118.93551 37644 ft 471 kts 136°
2026-04-28 16:17 17.96228 118.97621 37646 ft 463 kts 152°
2026-04-28 16:17 17.93460 118.99338 37644 ft 463 kts 154°
2026-04-28 16:17 17.87819 119.02623 37644 ft 464 kts 155°
2026-04-28 16:18 17.84979 119.04243 37453 ft 463 kts 155°
2026-04-28 16:18 17.82154 119.05856 37199 ft 462 kts 155°
2026-04-28 16:18 17.79370 119.07452 36950 ft 462 kts 155°
2026-04-28 16:18 17.76550 119.09075 36689 ft 463 kts 155°
2026-04-28 16:19 17.73728 119.10704 36440 ft 462 kts 155°
2026-04-28 16:19 17.70915 119.12331 36203 ft 462 kts 155°
2026-04-28 16:19 17.68103 119.13958 35951 ft 462 kts 155°
2026-04-28 16:19 17.65293 119.15584 35711 ft 462 kts 155°
2026-04-28 16:20 17.62481 119.17210 35476 ft 462 kts 155°
2026-04-28 16:20 17.59671 119.18834 35242 ft 462 kts 155°
2026-04-28 16:20 17.56890 119.20441 35012 ft 462 kts 155°
2026-04-28 16:20 17.54083 119.22062 34778 ft 462 kts 155°
2026-04-28 16:21 17.51266 119.23689 34553 ft 462 kts 155°
2026-04-28 16:21 17.48449 119.25314 34323 ft 462 kts 155°
2026-04-28 16:21 17.45640 119.26935 34098 ft 461 kts 155°
2026-04-28 16:21 17.42843 119.28548 33859 ft 459 kts 155°
2026-04-28 16:22 17.40049 119.30160 33600 ft 456 kts 155°
2026-04-28 16:22 17.37279 119.31757 33346 ft 454 kts 155°
2026-04-28 16:22 17.34514 119.33349 33093 ft 452 kts 155°
2026-04-28 16:22 17.31801 119.34912 32846 ft 450 kts 155°
2026-04-28 16:23 17.29069 119.36485 32599 ft 448 kts 155°
2026-04-28 16:23 17.26346 119.38051 32348 ft 446 kts 155°
2026-04-28 16:23 17.23625 119.39617 32110 ft 444 kts 155°
2026-04-28 16:23 17.20922 119.41171 31865 ft 442 kts 155°
2026-04-28 16:24 17.18237 119.42715 31632 ft 441 kts 155°
2026-04-28 16:24 17.15557 119.44255 31394 ft 439 kts 154°
2026-04-28 16:24 17.12882 119.45791 31159 ft 437 kts 154°
2026-04-28 16:24 17.10229 119.47315 30925 ft 435 kts 154°
2026-04-28 16:25 17.07577 119.48837 30691 ft 433 kts 154°
2026-04-28 16:25 17.04982 119.50327 30466 ft 431 kts 154°
2026-04-28 16:25 17.02358 119.51832 30239 ft 429 kts 154°
2026-04-28 16:25 16.99750 119.53328 30011 ft 427 kts 154°
2026-04-28 16:26 16.97151 119.54818 29744 ft 426 kts 154°
2026-04-28 16:26 16.94560 119.56303 29483 ft 424 kts 154°
2026-04-28 16:26 16.91973 119.57785 29214 ft 423 kts 154°
2026-04-28 16:26 16.89403 119.59258 28955 ft 421 kts 154°
2026-04-28 16:27 16.86839 119.60726 28718 ft 419 kts 154°
2026-04-28 16:27 16.84319 119.62168 28448 ft 418 kts 154°
2026-04-28 16:27 16.79240 119.65075 27947 ft 415 kts 154°
2026-04-28 16:28 16.76717 119.66518 27697 ft 413 kts 154°
2026-04-28 16:28 16.75016 119.67490 27524 ft 412 kts 153°
2026-04-28 16:28 16.71693 119.69390 27189 ft 410 kts 153°
2026-04-28 16:28 16.69196 119.70816 26957 ft 408 kts 153°
2026-04-28 16:29 16.64228 119.73653 26479 ft 406 kts 153°
2026-04-28 16:29 16.59229 119.76505 26006 ft 412 kts 153°
2026-04-28 16:30 16.56734 119.77929 25772 ft 404 kts 153°
2026-04-28 16:30 16.54292 119.79324 25546 ft 399 kts 153°
2026-04-28 16:30 16.51863 119.80711 25319 ft 398 kts 153°
2026-04-28 16:30 16.49434 119.82095 25094 ft 397 kts 153°
2026-04-28 16:31 16.47012 119.83475 24869 ft 396 kts 153°
2026-04-28 16:31 16.44601 119.84848 24646 ft 395 kts 153°
2026-04-28 16:31 16.42190 119.86221 24425 ft 393 kts 153°
2026-04-28 16:31 16.39799 119.87582 24202 ft 392 kts 153°
2026-04-28 16:32 16.37438 119.88927 23991 ft 391 kts 153°
2026-04-28 16:32 16.32684 119.91632 23557 ft 388 kts 152°
2026-04-28 16:32 16.30317 119.92978 23305 ft 387 kts 152°
2026-04-28 16:33 16.27962 119.94317 23048 ft 385 kts 152°
2026-04-28 16:33 16.26407 119.95201 22878 ft 384 kts 152°
2026-04-28 16:33 16.23276 119.96981 22531 ft 381 kts 153°
2026-04-28 16:33 16.20956 119.98300 22278 ft 380 kts 153°
2026-04-28 16:34 16.18644 119.99613 22039 ft 378 kts 153°
2026-04-28 16:34 16.16372 120.00903 21792 ft 376 kts 153°
2026-04-28 16:34 16.14085 120.02201 21544 ft 374 kts 153°
2026-04-28 16:34 16.11802 120.03498 21307 ft 372 kts 153°
2026-04-28 16:35 16.09532 120.04785 21064 ft 371 kts 152°
2026-04-28 16:35 16.07279 120.06063 20819 ft 368 kts 152°
2026-04-28 16:35 16.05040 120.07333 20582 ft 366 kts 152°
2026-04-28 16:35 16.02809 120.08599 20349 ft 365 kts 152°
2026-04-28 16:36 16.00582 120.09861 20111 ft 363 kts 152°
2026-04-28 16:36 15.98373 120.11113 19881 ft 361 kts 152°
2026-04-28 16:36 15.96171 120.12360 19650 ft 360 kts 152°
2026-04-28 16:36 15.94006 120.13587 19423 ft 358 kts 152°
2026-04-28 16:37 15.91824 120.14823 19200 ft 356 kts 152°
2026-04-28 16:37 15.89655 120.16051 18975 ft 355 kts 152°
2026-04-28 16:37 15.87491 120.17275 18758 ft 353 kts 152°
2026-04-28 16:38 15.83199 120.19703 18312 ft 350 kts 152°
2026-04-28 16:38 15.81062 120.20912 18076 ft 349 kts 152°
2026-04-28 16:38 15.78934 120.22115 17818 ft 347 kts 152°
2026-04-28 16:38 15.76816 120.23311 17563 ft 346 kts 152°
2026-04-28 16:39 15.74731 120.24489 17320 ft 345 kts 152°
2026-04-28 16:39 15.72630 120.25676 17072 ft 343 kts 152°
2026-04-28 16:39 15.70541 120.26856 16826 ft 342 kts 152°
2026-04-28 16:39 15.68459 120.28033 16585 ft 340 kts 152°
2026-04-28 16:40 15.66383 120.29205 16346 ft 339 kts 152°
2026-04-28 16:40 15.64313 120.30373 16104 ft 338 kts 152°
2026-04-28 16:40 15.62255 120.31535 15973 ft 336 kts 152°
2026-04-28 16:40 15.60201 120.32694 15961 ft 336 kts 152°
2026-04-28 16:41 15.58177 120.33835 15960 ft 336 kts 152°
2026-04-28 16:41 15.56127 120.34991 15961 ft 336 kts 152°
2026-04-28 16:41 15.54066 120.36153 15963 ft 336 kts 152°
2026-04-28 16:41 15.52010 120.37312 15963 ft 336 kts 152°
2026-04-28 16:42 15.49958 120.38469 15964 ft 336 kts 152°
2026-04-28 16:42 15.47901 120.39627 15963 ft 335 kts 152°
2026-04-28 16:42 15.45879 120.40767 15960 ft 328 kts 152°
2026-04-28 16:42 15.43889 120.41888 15962 ft 324 kts 152°
2026-04-28 16:43 15.41919 120.42959 15960 ft 323 kts 155°
2026-04-28 16:43 15.39796 120.43805 15749 ft 323 kts 162°
2026-04-28 16:43 15.37687 120.44495 15513 ft 322 kts 163°
2026-04-28 16:43 15.35546 120.45168 15267 ft 321 kts 163°
2026-04-28 16:44 15.33417 120.45837 15056 ft 319 kts 163°
2026-04-28 16:44 15.31298 120.46505 14825 ft 318 kts 163°
2026-04-28 16:44 15.29184 120.47174 14593 ft 317 kts 163°
2026-04-28 16:44 15.27082 120.47840 14367 ft 316 kts 163°
2026-04-28 16:45 15.24982 120.48506 14136 ft 315 kts 163°
2026-04-28 16:45 15.22893 120.49169 13918 ft 313 kts 162°
2026-04-28 16:45 15.20843 120.49820 13690 ft 312 kts 162°
2026-04-28 16:45 15.18763 120.50480 13435 ft 311 kts 162°
2026-04-28 16:46 15.16697 120.51135 13190 ft 310 kts 162°
2026-04-28 16:46 15.14637 120.51789 12934 ft 309 kts 162°
2026-04-28 16:46 15.12586 120.52439 12692 ft 307 kts 162°
2026-04-28 16:46 15.10548 120.53086 12445 ft 306 kts 162°
2026-04-28 16:47 15.08521 120.53728 12207 ft 305 kts 162°
2026-04-28 16:47 15.06497 120.54370 11963 ft 303 kts 162°
2026-04-28 16:47 15.04483 120.55009 11726 ft 302 kts 162°
2026-04-28 16:47 15.02505 120.55636 11481 ft 301 kts 162°
2026-04-28 16:48 15.00506 120.56269 11247 ft 299 kts 162°
2026-04-28 16:48 14.98520 120.56899 11016 ft 298 kts 162°
2026-04-28 16:48 14.96542 120.57524 10779 ft 297 kts 162°
2026-04-28 16:48 14.94569 120.58148 10540 ft 296 kts 162°
2026-04-28 16:49 14.92604 120.58771 10316 ft 294 kts 162°
2026-04-28 16:49 14.90647 120.59390 10088 ft 293 kts 162°
2026-04-28 16:49 14.88701 120.60006 10005 ft 292 kts 162°
2026-04-28 16:49 14.86756 120.60621 9995 ft 292 kts 162°
2026-04-28 16:50 14.84841 120.61226 9989 ft 292 kts 162°
2026-04-28 16:50 14.82893 120.61842 9988 ft 292 kts 162°
2026-04-28 16:50 14.80949 120.62456 9990 ft 292 kts 162°
2026-04-28 16:50 14.79003 120.63071 9987 ft 292 kts 162°
2026-04-28 16:51 14.77059 120.63685 9984 ft 292 kts 162°
2026-04-28 16:51 14.75116 120.64299 9982 ft 292 kts 162°
2026-04-28 16:51 14.73172 120.64914 9983 ft 292 kts 162°
2026-04-28 16:51 14.71228 120.65527 9982 ft 292 kts 162°
2026-04-28 16:52 14.69310 120.66133 9984 ft 292 kts 162°
2026-04-28 16:52 14.67371 120.66745 9980 ft 288 kts 162°
2026-04-28 16:52 14.65502 120.67334 9984 ft 274 kts 162°
2026-04-28 16:52 14.63704 120.67901 9981 ft 268 kts 162°
2026-04-28 16:53 14.61929 120.68505 9979 ft 268 kts 156°
2026-04-28 16:53 14.60259 120.69352 9980 ft 268 kts 151°
2026-04-28 16:53 14.58657 120.70277 9978 ft 259 kts 150°
2026-04-28 16:53 14.57109 120.71189 9981 ft 253 kts 149°
2026-04-28 16:54 14.55584 120.72090 9980 ft 252 kts 149°
2026-04-28 16:54 14.54046 120.72909 9976 ft 252 kts 159°
2026-04-28 16:54 14.52328 120.73167 9977 ft 253 kts 186°
2026-04-28 16:54 14.51209 120.72842 9982 ft 253 kts 206°
2026-04-28 16:55 14.49504 120.71148 9784 ft 262 kts 236°
2026-04-28 16:55 14.48575 120.69529 9467 ft 261 kts 239°
2026-04-28 16:55 14.47697 120.67887 9097 ft 262 kts 240°
2026-04-28 16:55 14.46816 120.66248 8742 ft 261 kts 239°
2026-04-28 16:56 14.45845 120.64671 8367 ft 260 kts 226°
2026-04-28 16:56 14.44392 120.63625 8003 ft 253 kts 194°
2026-04-28 16:56 14.42708 120.63544 7664 ft 246 kts 162°
2026-04-28 16:56 14.41142 120.64222 7324 ft 243 kts 150°
2026-04-28 16:57 14.39675 120.65077 7018 ft 242 kts 148°
2026-04-28 16:57 14.38228 120.65950 6717 ft 240 kts 148°
2026-04-28 16:57 14.36781 120.66818 6392 ft 240 kts 148°
2026-04-28 16:57 14.35346 120.67690 6065 ft 239 kts 144°
2026-04-28 16:58 14.34187 120.68876 5732 ft 234 kts 119°
2026-04-28 16:58 14.33765 120.70463 5391 ft 232 kts 88°
2026-04-28 16:58 14.34197 120.72058 5056 ft 233 kts 62°
2026-04-28 16:58 14.35184 120.73376 4738 ft 233 kts 52°
2026-04-28 16:59 14.36140 120.74689 4430 ft 231 kts 59°
2026-04-28 16:59 14.37028 120.76052 4111 ft 229 kts 46°
2026-04-28 16:59 14.37963 120.77388 3830 ft 230 kts 41°
2026-04-28 16:59 14.38900 120.78713 3493 ft 231 kts 53°
2026-04-28 17:00 14.39643 120.80186 3258 ft 230 kts 53°
2026-04-28 17:00 14.40374 120.81635 2903 ft 225 kts 53°
2026-04-28 17:00 14.41106 120.83042 2600 ft 220 kts 52°
2026-04-28 17:00 14.41813 120.84380 2395 ft 204 kts 52°
2026-04-28 17:01 14.42346 120.85696 2228 ft 194 kts 57°
2026-04-28 17:01 14.42688 120.86947 2010 ft 173 kts 51°
2026-04-28 17:01 14.43298 120.87878 1917 ft 160 kts 13°